Regional Weather Roundup
Issued by NWS

Home | Current Version | Previous Version | Graphics & Text | Print | Product List | Glossary On
Versions: 1 2 3 4 5 6 7 8 9 10 11 12 13 14 15 16 17 18 19 20 21 22 23 24 25 26 27 28 29 30 31 32 33 34 35 36 37 38 39 40 41 42 43 44 45 46 47 48 49 50
182
ASUS45 KBOI 291310
RWRID

IDAHO REGIONAL WEATHER ROUNDUP
NATIONAL WEATHER SERVICE BOISE ID
700 AM MDT MON MAY 29 2017

NOTE: "FAIR" INDICATES FEW OR NO CLOUDS BELOW 12000 FEET
WITH NO SIGNIFICANT WEATHER AND/OR OBSTRUCTIONS TO VISIBILITY

IDZ012-014-291400-
SOUTHWEST IDAHO


CITY           SKY/WX    TMP DP  RH WIND       PRES   REMARKS
BOISE          CLEAR     58  43  57 SE7       30.09S
CALDWELL       CLEAR     49  44  83 NE3       30.10R
MOUNTAIN HOME  CLEAR     51  45  79 E9        30.12R
$$

IDZ016-017-291400-
SOUTHCENTRAL IDAHO


CITY           SKY/WX    TMP DP  RH WIND       PRES   REMARKS
BURLEY         CLEAR     46  43  89 N3        30.17R
JEROME         CLEAR     53  42  66 NE14      30.17R
TWIN FALLS     CLEAR     50  43  77 S8        30.16S
$$

IDZ019>023-291400-
SOUTHEAST IDAHO


CITY           SKY/WX    TMP DP  RH WIND       PRES   REMARKS
IDAHO FALLS    SUNNY     47  42  83 N8        30.24R
POCATELLO      CLEAR     45  40  82 CALM      30.22R
REXBURG        SUNNY     44  39  82 E6        30.25R
$$

IDZ006-010-011-018-031-032-291400-
CENTRAL IDAHO MOUNTAINS


CITY           SKY/WX    TMP DP  RH WIND       PRES   REMARKS
MCCALL         CLEAR     44  37  76 NE3       30.20S
HAILEY         CLEAR     46  39  76 NW8       30.26F
STANLEY          N/A     32  29  88 CALM      30.34R
SALMON         CLEAR     45  39  81 CALM      30.24R
CHALLIS        CLEAR     46  37  71 CALM      30.27R
$$

IDZ002-004-006-007-026-291400-
NORTHERN IDAHO


CITY           SKY/WX    TMP DP  RH WIND       PRES   REMARKS
LEWISTON       CLEAR     57  48  72 CALM      30.06R
LOWELL           N/A     48  44  86 N3        30.16R
COEUR D`ALENE  CLEAR     54  47  77 NE9       30.11R
MULLAN PASS    CLEAR     52  36  54 SE8       30.25S
$$




USA.gov is the U.S. government's official web portal to all federal, state and local government web resources and services.